Location: Gro�bocka
(50.8204°N, 11.9702°E)
Time: 04:43:57
(UTC+00:00)

X-37B - Pass Details

Date: 22 June 2021
Orbit: 383 x 392 km, 45.0° (Epoch: 01 July)

Event Time Altitude Azimuth Distance (km) Brightness Sun altitude
Exits shadow 00:10:37 13° 130° (SE) 1,255 2.9 -14.7°
Drops below altitude 10° 00:11:03 10° 125° (SE) 1,404 3.2 -14.7°
Sets 00:13:17 0° 113° (ESE) 2,259 4.4 -14.6°
